This is the latest recevied weather packets stored in our database for station/object OE5HMR-13. If no packets are shown the sender has not sent any weather packets the latest 10 day(s).
| Time | Temp. | Humidity | Pressure | Rain* | Wind** | Luminosity | Snow |
|---|---|---|---|---|---|---|---|
| 1777598126 | 3.33° C | 42% | 1025.4 hPa | 0 mm | - | - | - |
| 1777596345 | 3.89° C | 42% | 1025.4 hPa | 0 mm | - | - | - |
| 1777593328 | 3.89° C | 42% | 1025.4 hPa | 0 mm | - | - | - |
| 1777586725 | 2.78° C | 42% | 1025.4 hPa | 0 mm | - | - | - |
| 1777582524 | 3.33° C | 39% | 1025.4 hPa | 0 mm | - | - | - |
| 1777578927 | 2.78° C | 39% | 1025.4 hPa | 0 mm | - | - | - |
| 1777569343 | 10° C | 29% | 1025.2 hPa | 0 mm | - | - | - |
| 1777568723 | 10.56° C | 29% | 1024.3 hPa | 0 mm | - | - | - |
| 1777565726 | 11.11° C | 28% | 1024.3 hPa | 0 mm | - | - | - |
| 1777564522 | 11.67° C | 28% | 1024.3 hPa | 0 mm | - | - | - |
| 1777561530 | 11.11° C | 29% | 1025.4 hPa | 0 mm | - | - | - |
| 1777559136 | 11.11° C | 29% | 1025.4 hPa | 0 mm | - | - | - |
| 1777556732 | 10.56° C | 29% | 1025.4 hPa | 0 mm | - | - | - |
| 1777553750 | 10.56° C | 31% | 1025.4 hPa | 0 mm | - | - | - |
| 1777544734 | 8.33° C | 35% | 1025.4 hPa | 0 mm | - | - | - |
| 1777542330 | 7.78° C | 36% | 1026.5 hPa | 0 mm | - | - | - |
| 1777532137 | 3.33° C | 42% | 1026.5 hPa | 0 mm | - | - | - |
| 1777531538 | 2.78° C | 42% | 1026.4 hPa | 0 mm | - | - | - |
| 1777529134 | 0.56° C | 45% | 1025.4 hPa | 0 mm | - | - | - |
| 1777523170 | -2.78° C | 46% | 1025.4 hPa | 0 mm | - | - | - |
| 1777521935 | -2.78° C | 46% | 1025.4 hPa | 0 mm | - | - | - |
| 1777521329 | -2.78° C | 46% | 1025.4 hPa | 0 mm | - | - | - |
| 1777520149 | -2.78° C | 45% | 1025.4 hPa | 0 mm | - | - | - |
| 1777512928 | -2.78° C | 43% | 1025.4 hPa | 0 mm | - | - | - |
| 1777512326 | -2.78° C | 42% | 1025.4 hPa | 0 mm | - | - | - |
* Rain latest hour (hover to see other rain measurements)
** Current wind speed in m/s (hover to see current wind gust speed)